Location: Le Rocchette
(44.3500°N, 7.8333°E)
Time: 23:59:22
(UTC+00:00)

CZ-2C R/B - Pass Details

Date: 17 November 2019
Orbit: 667 x 785 km, 98.1° (Epoch: 09 December)

Event Time Altitude Azimuth Distance (km) Brightness Sun altitude
Rises 03:06:18 0° 23° (NNE) 3,167 6.1 -35.7°
Reaches altitude 10° 03:08:54 10° 35° (NE) 2,220 5.3 -35.2°
Maximum altitude 03:13:06 29° 94° (E) 1,293 4.1 -34.4°
Enters shadow 03:13:42 28° 108° (ESE) 1,313 4.1 -34.3°
